CAPE
0 0 0 0 0 0 0 0 0 0 0 2 418 1027 1966 2146 2408 2536 2476 2492 2808 2845 2713 2137 2142 1648 1507 1875 1798 1770 1897 2024 1818 1508 1313 1321 1031 1018 937 864 846 949 662
0 0 0 0 0 0 0 0 0 0 0 0 0 717 1271 1652 1799 2369 2797 2635 2448 2498 2679 2377 2082 1607 1458 1664 1665 1345 1291 1231 1342 936 852 844 899 905 921 892 758 795 677
0 0 0 0 0 0 0 0 0 0 0 0 0 0 884 1395 1691 2279 2877 2917 2396 2394 2727 2262 1877 1488 1464 1079 1783 1417 1117 1175 953 1455 919 878 572 522 762 860 760 785 588
0 0 0 0 0 0 0 0 0 0 0 0 0 0 22 954 1568 1771 2152 2554 2809 2464 2280 2097 1896 1498 1377 1110 1403 1427 1342 1165 875 709 1258 903 618 481 425 448 504 735 533
0 0 0 0 0 0 0 0 0 0 0 0 6 5 5 1126 1322 2036 1943 2164 2276 1977 1910 1872 1934 1485 1509 1134 1202 1548 1305 1114 937 579 724 1111 969 639 456 553 497 211 469
0 0 0 0 0 0 0 0 0 0 0 0 0 15 199 482 1442 1657 2146 2386 2306 1652 1576 1512 1685 1525 1371 1116 1024 1375 1176 1165 957 636 1268 959 830 793 484 407 305 347 270
0 0 0 0 0 0 0 0 0 0 0 0 7 0 76 586 1943 1679 2364 2392 1972 1530 1481 1681 1811 1854 1319 1183 916 1119 1201 1136 778 1328 1202 1020 654 449 512 482 527 426 336
0 0 0 0 0 0 0 0 1 0 43 82 54 69 95 922 1800 2039 2048 2305 2034 1627 1779 1804 1651 1752 1295 1180 1118 1115 1095 847 967 1374 1448 1156 898 798 723 576 601 128 86
0 0 0 0 0 0 0 0 0 73 179 144 164 260 395 1343 2056 2254 2592 2484 2284 1584 1764 1817 1753 1430 1761 1101 979 923 746 747 945 1154 1521 1311 1205 1023 922 614 448 408 230
0 0 0 0 0 0 0 0 1 148 238 254 364 471 630 1179 2176 2182 2217 2153 2423 2159 1931 1574 1581 1697 1599 1211 857 796 819 1058 1177 1059 784 818 864 793 841 629 462 244 410
0 0 0 0 0 0 0 0 0 147 109 122 248 584 915 1647 2256 2077 2043 2266 2259 1864 1763 1873 1310 1343 1709 1475 1035 802 847 901 1190 730 602 585 597 416 333 362 382 469 202
0 0 0 0 0 0 0 0 22 25 108 94 161 711 1504 1532 1789 1807 1881 1962 1727 1695 1624 1459 924 1299 1744 1340 1284 741 1137 1011 558 406 407 359 425 441 568 608 383 397 230
0 1 0 0 0 8 0 0 0 2 105 124 112 292 1011 1205 1273 1174 1290 1375 1276 1113 1310 1247 1161 1087 892 889 442 586 827 463 343 436 299 438 411 433 488 282 227 166 105
0 4 0 8 13 7 2 5 16 0 15 190 77 234 584 1080 1066 1058 987 1218 938 951 782 919 990 470 462 435 479 423 353 371 319 246 219 108 85 83 120 112 46 25 47
0 2 13 11 12 2 10 5 3 0 0 41 103 200 354 467 441 675 516 599 507 506 559 666 448 483 365 331 346 317 245 218 223 180 0 1 0 0 0 0 23 130 38
0 0 0 1 1 0 1 3 0 25 0 1 0 0 24 152 226 336 446 527 353 293 350 221 204 214 161 201 145 84 50 135 200 0 0 0 0 0 0 0 0 0 17
0 0 0 0 0 0 0 0 0 0 0 3 0 0 0 0 129 105 51 138 146 198 192 152 137 72 75 115 23 13 30 53 14 0 0 0 0 0 0 0 0 0 17
0 0 0 0 0 0 0 0 2 1 0 0 4 0 0 0 0 37 4 34 3 98 132 56 12 0 0 0 31 24 19 15 1 0 0 1 0 0 0 0 0 0 0
0 0 0 0 0 0 0 0 0 0 0 0 0 0 0 0 0 0 0 0 0 0 0 0 0 0 10 18 16 17 4 3 12 3 17 1 0 0 0 0 0 0 0
0 0 0 0 0 0 0 0 0 0 0 0 0 0 0 0 0 0 0 0 0 0 0 0 0 0 0 11 12 9 4 10 0 0 0 0 1 0 0 0 1 0 0
0 0 0 0 0 0 0 0 0 0 0 0 0 0 0 0 0 0 0 0 0 0 0 0 0 0 0 0 0 0 0 1 1 0 2 0 2 3 3 6 0 0 0
0 0 0 0 0 0 0 0 0 0 0 0 0 0 0 0 0 0 0 0 0 0 0 0 0 0 0 0 0 0 0 0 0 0 0 0 0 13 6 0 0 5 7
0 0 0 0 0 0 0 0 0 0 0 0 0 0 0 0 0 0 0 0 0 0 0 0 0 0 0 0 0 0 0 0 0 0 0 0 0 0 1 0 0 8 8
0 0 0 0 0 0 0 0 0 0 0 0 0 0 0 0 0 0 0 0 0 0 0 0 0 0 0 0 0 0 0 0 0 0 0 0 0 0 0 0 0 0 1
0 0 0 0 0 0 0 0 0 0 0 0 0 0 0 0 0 0 0 0 0 0 0 0 0 0 0 0 0 0 0 0 0 0 0 0 0 0 0 0 0 0 0
0 0 0 0 0 0 0 0 0 0 0 0 0 0 0 0 0 0 0 0 0 0 0 0 0 0 0 0 0 0 0 0 0 0 0 0 0 0 0 0 0 0 0
CIN
-0 -0 -0 -0 -0 -0 -0 -0 -0 -0 -0 -107 -131 -81 -26 -33 -21 -21 -50 -63 -42 -34 -18 -36 -37 -102 -106 -54 -40 -13 -0 -0 -0 -0 -0 -0 -0 -0 -0 -0 -0 -0 -0
-0 -0 -0 -0 -0 -0 -0 -0 -0 -0 -0 -0 -0 -60 -33 -70 -73 -33 -27 -32 -47 -59 -41 -61 -73 -122 -111 -46 -51 -72 -38 -19 -6 -16 -9 -12 -4 -2 -0 -0 -0 -0 -0
-0 -0 -0 -0 -0 -0 -0 -0 -0 -0 -0 -0 -0 -0 -42 -19 -40 -26 -1 -14 -74 -97 -73 -99 -106 -130 -103 -119 -36 -50 -73 -46 -51 -0 -14 -5 -43 -11 -0 -0 -0 -0 -0
-0 -0 -0 -0 -0 -0 -0 -0 -0 -0 -0 -0 -0 -0 -168 -6 -22 -47 -41 -45 -45 -80 -92 -103 -121 -140 -126 -124 -84 -51 -42 -30 -62 -41 -0 -16 -14 -34 -3 -17 -0 -0 -0
-0 -0 -0 -0 -0 -0 -0 -0 -0 -0 -0 -0 -0 -0 -46 -1 -2 -5 -24 -51 -81 -104 -110 -129 -102 -133 -123 -141 -100 -40 -30 -40 -37 -86 -38 -3 -6 -23 -11 -3 -0 -16 -1
-0 -0 -0 -0 -0 -0 -0 -0 -0 -0 -0 -0 -0 -0 -81 -48 -0 -4 -7 -26 -61 -133 -131 -150 -105 -118 -138 -139 -135 -60 -43 -36 -31 -51 -0 -5 -2 -11 -10 -0 -0 -1 -8
-0 -0 -0 -0 -0 -0 -0 -0 -0 -0 -0 -0 -92 -0 -182 -72 -0 -3 -1 -6 -47 -106 -110 -108 -100 -72 -132 -120 -114 -65 -44 -41 -46 -0 -0 -0 -3 -7 -7 -2 -0 -0 -0
-0 -0 -0 -0 -0 -0 -0 -0 -0 -0 -36 -56 -131 -182 -246 -48 -1 -0 -1 -2 -15 -33 -49 -90 -117 -85 -121 -111 -103 -75 -60 -55 -28 -1 -0 -0 -2 -0 -0 -1 -0 -3 -18
-0 -0 -0 -0 -0 -0 -0 -0 -1 -5 -0 -16 -84 -124 -158 -20 -1 -0 -0 -0 -3 -29 -15 -36 -66 -98 -67 -114 -106 -111 -86 -60 -49 -7 -0 -0 -0 -0 -0 -2 -1 -0 -1
-0 -0 -0 -0 -0 -0 -0 -0 -3 -0 -1 -10 -28 -82 -116 -45 -0 -4 -3 -3 -0 -0 -0 -33 -42 -52 -59 -85 -101 -97 -71 -19 -12 -1 -3 -4 -1 -0 -0 -3 -4 -3 -0
-0 -0 -0 -0 -0 -0 -0 -0 -0 -0 -22 -66 -79 -71 -59 -3 -0 -1 -2 -0 -1 -0 -0 -3 -55 -42 -23 -36 -63 -70 -50 -26 -1 -2 -2 -5 -0 -9 -16 -13 -9 -0 -7
-0 -0 -0 -0 -0 -0 -0 -0 -0 -15 -4 -42 -73 -29 -0 -0 -0 -2 -1 -2 -1 -0 -0 -0 -42 -13 -0 -11 -16 -47 -7 -0 -0 -5 -0 -3 -2 -4 -0 -0 -8 -2 -1
-0 -2 -0 -0 -0 -1 -0 -0 -0 -10 -0 -19 -53 -57 -12 -0 -0 -0 -0 -0 -0 -0 -0 -0 -0 -0 -0 -1 -34 -15 -0 -0 -1 -0 -4 -0 -0 -3 -3 -6 -8 -20 -33
-0 -4 -1 -4 -2 -0 -1 -0 -0 -0 -3 -0 -33 -22 -11 -0 -1 -1 -1 -0 -13 -4 -4 -0 -0 -7 -5 -6 -1 -1 -0 -6 -0 -0 -6 -23 -42 -47 -36 -38 -17 -73 -55
-1 -8 -1 -1 -2 -3 -0 -11 -26 -40 -1 -3 -0 -0 -0 -0 -12 -2 -20 -12 -17 -19 -10 -0 -1 -0 -3 -0 -0 -0 -0 -0 -0 -0 -0 -0 -9 -0 -0 -0 -15 -31 -0
-0 -0 -0 -1 -1 -0 -2 -38 -0 -8 -11 -3 -0 -0 -0 -1 -0 -3 -0 -0 -0 -1 -0 -1 -0 -0 -0 -0 -0 -0 -5 -0 -0 -2 -0 -0 -0 -0 -0 -0 -0 -0 -0
-0 -0 -0 -0 -0 -0 -0 -0 -0 -0 -0 -12 -0 -0 -1 -0 -0 -0 -40 -0 -0 -0 -0 -0 -1 -7 -2 -1 -22 -12 -6 -2 -24 -0 -0 -0 -0 -0 -0 -0 -0 -0 -0
-0 -0 -0 -0 -0 -0 -0 -0 -0 -0 -0 -0 -9 -0 -0 -0 -0 -0 -0 -0 -0 -0 -0 -1 -11 -0 -0 -0 -0 -3 -12 -20 -0 -0 -0 -0 -0 -0 -0 -0 -0 -0 -1
-0 -0 -0 -0 -0 -0 -0 -0 -0 -0 -0 -0 -0 -0 -0 -0 -0 -0 -0 -0 -0 -0 -0 -0 -4 -0 -6 -18 -21 -11 -2 -0 -0 -2 -7 -2 -3 -0 -0 -0 -0 -0 -0
-0 -0 -0 -0 -0 -0 -0 -0 -0 -0 -0 -0 -0 -0 -0 -0 -0 -0 -0 -0 -0 -0 -0 -0 -0 -0 -0 -0 -0 -0 -0 -0 -0 -0 -0 -0 -1 -0 -0 -0 -3 -0 -0
-0 -0 -0 -0 -0 -0 -0 -0 -0 -0 -0 -0 -0 -0 -0 -0 -0 -0 -0 -0 -0 -0 -0 -0 -0 -0 -0 -0 -0 -0 -0 -0 -0 -0 -0 -0 -0 -2 -2 -0 -0 -0 -0
-0 -0 -0 -0 -0 -0 -0 -0 -0 -0 -0 -0 -0 -0 -0 -0 -0 -0 -0 -0 -0 -0 -0 -0 -0 -0 -0 -0 -0 -0 -0 -0 -0 -0 -0 -0 -1 -0 -0 -0 -0 -0 -0
-0 -0 -0 -0 -0 -0 -0 -0 -0 -0 -0 -0 -0 -0 -0 -0 -0 -0 -0 -0 -0 -0 -0 -0 -0 -0 -0 -0 -0 -0 -0 -0 -0 -0 -0 -0 -0 -0 -0 -0 -0 -0 -1
-0 -0 -0 -0 -0 -0 -0 -0 -0 -0 -0 -0 -0 -0 -0 -0 -0 -0 -0 -0 -0 -0 -0 -0 -0 -0 -0 -0 -0 -0 -0 -0 -0 -0 -0 -0 -0 -0 -0 -0 -0 -0 -2
-0 -0 -0 -0 -0 -0 -0 -0 -0 -0 -0 -0 -0 -0 -0 -0 -0 -0 -0 -0 -0 -0 -0 -0 -0 -0 -0 -0 -0 -0 -0 -0 -0 -0 -0 -0 -0 -0 -0 -0 -0 -0 -0
-0 -0 -0 -0 -0 -0 -0 -0 -0 -0 -0 -0 -0 -0 -0 -0 -0 -0 -0 -0 -0 -0 -0 -0 -0 -0 -0 -0 -0 -0 -0 -0 -0 -0 -0 -0 -0 -0 -0 -0 -0 -0 -0
Wind_Speed
nan nan nan nan nan nan nan nan nan nan nan nan 44 42 42 43 43 41 38 39 40 37 35 37 38 44 36 33 37 35 32 28 29 30 20 19 18 16 18 18 20 23 17
nan nan nan nan nan nan nan nan nan nan nan nan nan 46 43 42 41 39 39 40 37 37 37 38 38 43 38 35 36 37 36 34 32 32 27 22 21 18 19 20 19 18 19
nan nan nan nan nan nan nan nan nan nan nan nan nan nan 48 47 44 39 40 42 35 35 38 40 39 40 46 40 37 36 38 37 31 28 30 25 20 23 23 22 21 19 22
nan nan nan nan nan nan nan nan nan nan nan nan nan nan nan 49 45 42 40 43 33 34 37 37 41 46 50 44 39 35 35 39 32 33 20 20 24 25 23 24 20 21 18
nan nan nan nan nan nan nan nan nan nan nan nan nan nan nan 56 56 52 39 35 40 37 39 41 42 47 48 44 41 36 35 36 34 30 31 24 24 22 22 16 23 25 23
nan nan nan nan nan nan nan nan nan nan nan nan nan nan 64 58 63 57 50 48 49 43 36 45 43 44 46 44 41 36 36 34 35 32 26 29 29 26 25 20 17 15 22
nan nan nan nan nan nan nan nan nan nan nan nan nan nan nan 62 62 60 55 54 55 45 37 44 45 44 44 46 40 38 37 33 35 28 27 28 26 29 28 23 21 21 21
nan nan nan nan nan nan nan nan nan nan nan nan nan nan nan 64 64 61 59 59 56 43 38 36 45 43 43 46 42 40 38 35 35 25 26 28 28 28 27 28 24 29 nan
nan nan nan nan nan nan nan nan nan nan 20 20 30 40 41 42 47 50 58 59 48 42 39 41 43 43 45 46 42 37 38 40 32 22 28 30 29 27 30 29 31 29 26
nan nan nan nan nan nan nan nan nan 15 15 17 23 32 39 39 33 47 49 42 39 37 37 42 41 43 44 44 40 38 37 33 25 27 31 32 30 32 31 32 31 30 28
nan nan nan nan nan nan nan nan nan 18 16 23 30 34 37 33 25 27 29 31 39 36 38 39 42 41 42 43 37 39 32 28 26 31 32 30 33 35 33 32 31 31 33
nan nan nan nan nan nan nan nan nan nan 25 nan 31 41 42 49 32 30 31 38 38 41 40 41 39 43 40 39 39 40 37 32 33 34 34 32 36 30 26 29 32 31 30
nan nan nan nan nan nan nan nan nan nan 27 27 35 43 48 52 52 46 46 45 48 45 39 38 39 44 48 45 44 45 40 36 39 37 34 29 29 25 26 30 28 29 31
nan nan nan nan nan nan nan nan nan nan nan 31 nan 46 54 55 53 55 59 61 57 54 52 54 55 58 56 52 52 49 46 46 43 39 33 32 nan nan 25 26 nan nan nan
nan nan nan nan nan nan nan nan nan nan nan nan 36 41 49 54 57 61 62 62 65 61 57 59 59 58 58 52 49 48 47 47 47 42 nan nan nan nan nan nan nan 28 nan
nan nan nan nan nan nan nan nan nan nan nan nan nan nan nan 48 52 56 56 60 63 66 64 62 56 56 58 59 55 nan nan 55 55 nan nan nan nan nan nan nan nan nan nan
nan nan nan nan nan nan nan nan nan nan nan nan nan nan nan nan 45 45 nan 53 55 61 62 60 60 nan nan 62 nan nan nan nan nan nan nan nan nan nan nan nan nan nan nan
nan nan nan nan nan nan nan nan nan nan nan nan nan nan nan nan nan nan nan nan nan nan 50 nan nan nan nan nan nan nan nan nan nan nan nan nan nan nan nan nan nan nan nan
nan nan nan nan nan nan nan nan nan nan nan nan nan nan nan nan nan nan nan nan nan nan nan nan nan nan nan nan nan nan nan nan nan nan nan nan nan nan nan nan nan nan nan
nan nan nan nan nan nan nan nan nan nan nan nan nan nan nan nan nan nan nan nan nan nan nan nan nan nan nan nan nan nan nan nan nan nan nan nan nan nan nan nan nan nan nan
nan nan nan nan nan nan nan nan nan nan nan nan nan nan nan nan nan nan nan nan nan nan nan nan nan nan nan nan nan nan nan nan nan nan nan nan nan nan nan nan nan nan nan
nan nan nan nan nan nan nan nan nan nan nan nan nan nan nan nan nan nan nan nan nan nan nan nan nan nan nan nan nan nan nan nan nan nan nan nan nan nan nan nan nan nan nan
nan nan nan nan nan nan nan nan nan nan nan nan nan nan nan nan nan nan nan nan nan nan nan nan nan nan nan nan nan nan nan nan nan nan nan nan nan nan nan nan nan nan nan
nan nan nan nan nan nan nan nan nan nan nan nan nan nan nan nan nan nan nan nan nan nan nan nan nan nan nan nan nan nan nan nan nan nan nan nan nan nan nan nan nan nan nan
nan nan nan nan nan nan nan nan nan nan nan nan nan nan nan nan nan nan nan nan nan nan nan nan nan nan nan nan nan nan nan nan nan nan nan nan nan nan nan nan nan nan nan
nan nan nan nan nan nan nan nan nan nan nan nan nan nan nan nan nan nan nan nan nan nan nan nan nan nan nan nan nan nan nan nan nan nan nan nan nan nan nan nan nan nan nan
Wind_Direction
nan nan nan nan nan nan nan nan nan nan nan nan 252 254 258 265 270 270 278 281 281 284 284 275 277 279 284 281 278 274 284 283 286 284 293 305 302 308 309 310 320 319 304
nan nan nan nan nan nan nan nan nan nan nan nan nan 250 253 257 259 262 266 268 269 273 276 278 277 282 280 274 279 279 272 272 285 281 281 296 306 305 310 311 322 314 299
nan nan nan nan nan nan nan nan nan nan nan nan nan nan 253 248 252 254 258 271 276 276 274 283 274 276 275 274 274 277 282 275 273 290 285 291 301 285 298 313 318 311 291
nan nan nan nan nan nan nan nan nan nan nan nan nan nan nan 257 252 250 255 263 272 267 273 272 269 270 268 272 273 271 275 273 268 271 291 289 275 288 281 285 302 300 294
nan nan nan nan nan nan nan nan nan nan nan nan nan nan nan 244 247 245 244 253 259 262 266 262 264 267 268 270 273 271 272 271 269 268 270 285 292 296 273 267 279 292 295
nan nan nan nan nan nan nan nan nan nan nan nan nan nan 233 235 243 245 239 242 250 254 268 260 259 264 271 268 272 267 268 269 267 265 277 284 288 293 283 276 275 288 291
nan nan nan nan nan nan nan nan nan nan nan nan nan nan nan 227 232 237 235 239 245 246 253 258 255 258 271 265 266 261 262 264 266 271 273 277 285 284 288 283 269 270 274
nan nan nan nan nan nan nan nan nan nan nan nan nan nan nan 227 229 231 230 235 244 244 248 248 250 259 265 262 263 258 260 262 257 274 273 276 277 285 283 280 278 262 nan
nan nan nan nan nan nan nan nan nan nan 210 198 201 196 205 215 231 229 231 242 245 241 241 245 249 255 262 263 266 257 268 265 266 271 275 275 273 278 274 276 280 268 263
nan nan nan nan nan nan nan nan nan 209 187 168 171 180 192 200 219 228 234 244 239 238 241 247 253 259 265 266 268 262 263 267 262 268 270 273 272 271 268 273 274 271 269
nan nan nan nan nan nan nan nan nan 207 195 184 179 184 190 186 215 222 222 224 230 234 238 247 253 260 260 264 263 264 263 263 268 270 268 275 274 268 264 270 274 273 271
nan nan nan nan nan nan nan nan nan nan 214 nan 190 192 197 200 214 210 215 220 230 233 237 245 251 255 253 257 258 256 253 262 263 270 268 272 267 271 272 275 279 275 274
nan nan nan nan nan nan nan nan nan nan 211 212 212 206 204 204 205 208 217 225 232 230 232 234 237 240 239 245 242 248 250 254 260 261 264 263 263 265 265 274 276 277 279
nan nan nan nan nan nan nan nan nan nan nan 215 nan 213 205 203 206 209 217 222 227 232 235 235 239 237 237 237 238 244 248 253 253 259 256 254 nan nan 263 267 nan nan nan
nan nan nan nan nan nan nan nan nan nan nan nan 216 210 209 211 214 216 218 222 228 233 238 238 234 237 238 236 238 245 249 247 248 249 nan nan nan nan nan nan nan 289 nan
nan nan nan nan nan nan nan nan nan nan nan nan nan nan nan 221 221 223 224 228 229 232 237 238 237 236 239 235 238 nan nan 253 241 nan nan nan nan nan nan nan nan nan nan
nan nan nan nan nan nan nan nan nan nan nan nan nan nan nan nan 213 219 nan 228 233 237 236 234 233 nan nan 240 nan nan nan nan nan nan nan nan nan nan nan nan nan nan nan
nan nan nan nan nan nan nan nan nan nan nan nan nan nan nan nan nan nan nan nan nan nan 239 nan nan nan nan nan nan nan nan nan nan nan nan nan nan nan nan nan nan nan nan
nan nan nan nan nan nan nan nan nan nan nan nan nan nan nan nan nan nan nan nan nan nan nan nan nan nan nan nan nan nan nan nan nan nan nan nan nan nan nan nan nan nan nan
nan nan nan nan nan nan nan nan nan nan nan nan nan nan nan nan nan nan nan nan nan nan nan nan nan nan nan nan nan nan nan nan nan nan nan nan nan nan nan nan nan nan nan
nan nan nan nan nan nan nan nan nan nan nan nan nan nan nan nan nan nan nan nan nan nan nan nan nan nan nan nan nan nan nan nan nan nan nan nan nan nan nan nan nan nan nan
nan nan nan nan nan nan nan nan nan nan nan nan nan nan nan nan nan nan nan nan nan nan nan nan nan nan nan nan nan nan nan nan nan nan nan nan nan nan nan nan nan nan nan
nan nan nan nan nan nan nan nan nan nan nan nan nan nan nan nan nan nan nan nan nan nan nan nan nan nan nan nan nan nan nan nan nan nan nan nan nan nan nan nan nan nan nan
nan nan nan nan nan nan nan nan nan nan nan nan nan nan nan nan nan nan nan nan nan nan nan nan nan nan nan nan nan nan nan nan nan nan nan nan nan nan nan nan nan nan nan
nan nan nan nan nan nan nan nan nan nan nan nan nan nan nan nan nan nan nan nan nan nan nan nan nan nan nan nan nan nan nan nan nan nan nan nan nan nan nan nan nan nan nan
nan nan nan nan nan nan nan nan nan nan nan nan nan nan nan nan nan nan nan nan nan nan nan nan nan nan nan nan nan nan nan nan nan nan nan nan nan nan nan nan nan nan nan